Погода в Леонтьеве

Россия / Костромская область     58°10′29″N   44°29′59″E
темп.,
°C
ветер,
м/с
пор.,
м/с
влажн.,
%
обл.,
%
осадки,
мм/ч
давл.,
гПа
погр.,
м
15 июня, вт
вт1500:00+14ссз22905 0.3 101419
03:00+13с229527 0.3 101521
06:00+17с11839 0.0 1015174
09:00+23зюз11565 0.0 1015945
12:00+26юз234325 0.0 10131957
15:00+24ююз1257100 0.0 101285
18:00+21ю127287 0.0 101073
21:00+18ю25891 0.3 1010105
16 июня, ср
ср1600:00+15ю269889 3.6 1010124
03:00+15ююз259952 5.1 1009119
06:00+17юз249410 0.4 1009188
09:00+21з34802 3.6 1008446
12:00+20зсз7974100 0.9 1010904
15:00+21ссз564872 1.9 10111469
18:00+20ссз27492 0.0 10121980
21:00+14сз310580 0.0 1014207
17 июня, чт
чт1700:00+11сз266711 0.0 1015109
03:00+10зсз267066 0.0 1017109
06:00+13сз36620 0.0 1018255
09:00+19сз46410 0.0 10191361
12:00+21сз58345 0.0 10192290
15:00+21ссз693211 0.0 10202627
18:00+20сз584316 0.0 10211941
21:00+13сз24695 0.0 102366
18 июня, пт
пт1800:00+11сз247168 0.0 102470
03:00+9ссз11815 0.0 102610
06:00+14зсз11621 0.0 1027130
09:00+20зсз12395 0.0 1026889
12:00+23з233286 0.0 10251601
15:00+25з353395 0.0 10241897
18:00+23з3649100 0.0 1023385
21:00+18зюз31074100 0.0 1023217
19 июня, сб
сб1900:00+16зюз3118870 0.0 1024232
03:00+15зюз312905 0.0 1023249
06:00+19зюз411750 0.0 1023391
09:00+24з59510 0.0 10221026
12:00+28з610370 0.0 10202308
15:00+29зсз69350 0.0 10202492
18:00+27з494618 0.0 10201675
21:00+20з38730 0.0 1020131